Lebec, CA

7:23 PM PDT on July 27, 2016 (GMT -0700)
Sandberg

Weather History for KSDB - November, 2011

Change the Weather History Date:

Monday, November 21, 2011

  Actual Average Record
Temperature  
Mean Temperature 42 °F 47 °F  
Max Temperature 50 °F 54 °F 70 °F (1995)
Min Temperature 33 °F 41 °F 26 °F (2004)
Degree Days  
Heating Degree Days 23 18  
Month to date heating degree days 420 302  
Since 1 July heating degree days 596 603  
Cooling Degree Days 0 0  
Month to date cooling degree days 0 0  
Year to date cooling degree days 1095 996  
Moisture  
Dew Point 35 °F    
Average Humidity 81    
Maximum Humidity 100    
Minimum Humidity 61    
Precipitation  
Precipitation 0.00 in 0.02 in 1.89 in (1967)
Month to date precipitation 1.49 0.48  
Year to date precipitation 7.85 9.78  
Since 1 July precipitation 2.03  
Sea Level Pressure  
Sea Level Pressure 30.10 in    
Wind  
Wind Speed 7 mph (WNW)    
Max Wind Speed 53 mph    
Max Gust Speed 86 mph    
Visibility 8 miles    
Events Fog    
T = Trace of Precipitation, MM = Missing Value Source: NWS Daily Summary

Daily Weather History Graph

Daily Weather History Graph

Search for Another Location

Airport or City:

Trip Planner

Search our weather history database for the weather conditions in past years. The results will help you decide how hot, cold, wet, or windy it might be!

Date:

Astronomy

Nov. 21, 2011 Rise Set
Actual Time 6:34 AM PST 4:46 PM PST
Civil Twilight 6:07 AM PST 5:13 PM PST
Nautical Twilight 5:36 AM PST 5:44 PM PST
Astronomical Twilight 5:06 AM PST 6:14 PM PST
Moon 2:26 AM PST (11/21) 2:05 PM PST (11/21)
Length of Visible Light 11h 06m
Length of Day
10h 12m
Waning Crescent, 16% of the Moon is Illuminated
Nov 21
Waning Crescent
Nov 24
New
Dec 2
First Quarter
Dec 10
Full
Dec 17
Last Quarter

Hourly Weather History & Observations

Time (PST) Temp. Windchill Dew Point Humidity Pressure Visibility Wind Dir Wind Speed Gust Speed Precip Events Conditions
12:52 AM 34.0 °F - 33.1 °F 96% 29.97 in 10.0 mi Calm Calm - N/A   Clear
1:14 AM 33.8 °F - 32.0 °F 93% 29.98 in 3.0 mi Calm Calm - N/A   Partly Cloudy
1:16 AM 33.8 °F - 32.0 °F 93% 29.98 in 1.2 mi Calm Calm - N/A   Scattered Clouds
1:18 AM 33.8 °F - 33.8 °F 100% 29.98 in 0.8 mi Calm Calm - N/A   Mist
1:25 AM 33.8 °F - 33.8 °F 100% 29.99 in 0.2 mi Calm Calm - N/A Fog Fog
1:38 AM 33.8 °F 30.8 °F 33.8 °F 100% 29.99 in 0.5 mi North 3.5 mph - N/A Fog Fog
1:50 AM 33.8 °F 29.6 °F 33.8 °F 100% 29.99 in 1.2 mi NNW 4.6 mph - N/A   Overcast
1:52 AM 34.0 °F 29.8 °F 33.1 °F 96% 29.99 in 1.2 mi NNW 4.6 mph - N/A   Mostly Cloudy
2:04 AM 33.8 °F 27.0 °F 33.8 °F 100% 29.99 in 2.5 mi NNW 8.1 mph - N/A   Scattered Clouds
2:08 AM 33.8 °F 27.0 °F 32.0 °F 93% 30.00 in 10.0 mi NNW 8.1 mph - N/A   Scattered Clouds
2:52 AM 33.1 °F 23.9 °F 32.0 °F 96% 30.01 in 10.0 mi NNW 12.7 mph - N/A   Clear
3:22 AM 33.8 °F 25.3 °F 33.8 °F 100% 30.02 in 10.0 mi NNW 11.5 mph - N/A   Partly Cloudy
3:52 AM 34.0 °F 25.5 °F 33.1 °F 96% 30.01 in 10.0 mi NNW 11.5 mph - N/A   Partly Cloudy
4:52 AM 34.0 °F 26.0 °F 33.1 °F 96% 30.04 in 10.0 mi North 10.4 mph - N/A   Partly Cloudy
5:52 AM 34.0 °F 25.0 °F 33.1 °F 96% 30.06 in 10.0 mi NNW 12.7 mph - N/A   Partly Cloudy
6:52 AM 34.0 °F 27.2 °F 33.1 °F 96% 30.08 in 10.0 mi NNW 8.1 mph - N/A   Clear
7:52 AM 37.0 °F - 33.1 °F 86% 30.09 in 10.0 mi Calm Calm - N/A   Clear
8:02 AM - - - N/A% - - North - - N/A   Unknown
8:52 AM 39.0 °F - 33.1 °F 79% 30.12 in 10.0 mi Calm Calm - N/A   Clear
9:52 AM 41.0 °F 39.0 °F 37.0 °F 86% 30.14 in 10.0 mi Variable 3.5 mph - N/A   Clear
10:52 AM 45.0 °F - 35.1 °F 68% 30.15 in 10.0 mi Calm Calm - N/A   Clear
11:52 AM 46.9 °F - 37.9 °F 71% 30.14 in 10.0 mi Variable 3.5 mph - N/A   Partly Cloudy
12:05 PM 48.2 °F - 39.2 °F 71% 30.16 in 10.0 mi Variable 4.6 mph - N/A   Mostly Cloudy
12:15 PM 46.4 °F 45.2 °F 39.2 °F 76% 30.16 in 10.0 mi Variable 3.5 mph - N/A   Scattered Clouds
12:52 PM 48.0 °F - 36.0 °F 63% 30.13 in 10.0 mi Variable 4.6 mph - N/A   Clear
1:52 PM 48.9 °F - 39.0 °F 69% 30.13 in 10.0 mi SSE 6.9 mph - N/A   Scattered Clouds
2:52 PM 46.0 °F 41.4 °F 37.9 °F 73% 30.15 in 10.0 mi South 9.2 mph - N/A   Clear
3:25 PM 44.6 °F 41.4 °F 37.4 °F 76% 30.18 in 10.0 mi SW 5.8 mph - N/A   Mostly Cloudy
3:52 PM 44.1 °F - 37.9 °F 79% 30.17 in 10.0 mi Calm Calm - N/A   Overcast
4:52 PM 41.0 °F 37.1 °F 37.0 °F 86% 30.17 in 10.0 mi SSW 5.8 mph - N/A   Clear
5:52 PM 39.0 °F 33.4 °F 37.0 °F 93% 30.19 in 10.0 mi SSW 8.1 mph - N/A   Clear
6:52 PM 39.0 °F 34.0 °F 37.0 °F 93% 30.21 in 10.0 mi SSW 6.9 mph - N/A   Clear
7:52 PM 37.9 °F 32.7 °F 36.0 °F 93% 30.22 in 10.0 mi SSW 6.9 mph - N/A   Clear
8:52 PM 39.0 °F 34.8 °F 36.0 °F 89% 30.24 in 10.0 mi SW 5.8 mph - N/A   Clear
9:52 PM 43.0 °F 40.3 °F 30.0 °F 60% 30.23 in 10.0 mi NNW 4.6 mph - N/A   Clear
10:52 PM 39.9 °F 25.3 °F 32.0 °F 73% 30.23 in 10.0 mi SSE 52.9 mph 86.3 mph N/A   Squalls
11:52 PM 39.0 °F 34.8 °F 32.0 °F 76% 30.23 in 10.0 mi ENE 5.8 mph - N/A   Clear